Regional Weather Roundup
Issued by NWS

Home | Current Version | Previous Version | Graphics & Text | Print | Product List | Glossary On
Versions: 1 2 3 4 5 6 7 8 9 10 11 12 13 14 15 16 17 18 19 20 21 22 23 24 25 26 27 28 29 30 31 32 33 34 35 36 37 38 39 40 41 42 43 44 45 46 47 48 49 50
000
ASUS45 KPSR 200000
RWRAZ

PRELIMINARY ARIZONA REGIONAL HOURLY WEATHER ROUNDUP
NATIONAL WEATHER SERVICE PHOENIX AZ
500 PM MST SAT APR 19 2014

NOTE: FAIR INDICATES FEW OR NO CLOUDS BELOW 12,000 FEET WITH NO
SIGNIFICANT WEATHER AND/OR OBSTRUCTIONS TO VISIBILITY.

AZZ001>003-036-200100-
NORTHWEST ARIZONA

CITY           SKY/WX    TMP DP  RH WIND       PRES   REMARKS
KINGMAN        SUNNY     74  35  24 SW7       29.97S
6HR MIN TEMP:  67; 6HR MAX TEMP:  76; 6HR PCP:  0.01;

$$

AZZ004>008-015-016-018-200100-
NORTH CENTRAL ARIZONA

CITY           SKY/WX    TMP DP  RH WIND       PRES   REMARKS
GRAND CANYON   PTSUNNY   51  43  74 NE12      30.15R
6HR MIN TEMP:  47; 6HR MAX TEMP:  62; 6HR PCP:  0.10;

WILLIAMS       PTSUNNY   57  34  41 CALM      30.19F
PRESCOTT       MOSUNNY   68  30  24 W12       30.05S
6HR MIN TEMP:  63; 6HR MAX TEMP:  70;

FLAGSTAFF      CLOUDY    54  32  43 W9        30.14R
6HR MIN TEMP:  53; 6HR MAX TEMP:  62; 6HR PCP: TRACE;

PAYSON         MOSUNNY   68  36  30 VRB6G13   30.08S
PAGE           MOSUNNY   72  34  24 SW9G22    29.98S
6HR MIN TEMP:  64; 6HR MAX TEMP:  75;

$$

AZZ009>014-017-200100-
NORTHEAST ARIZONA

CITY           SKY/WX    TMP DP  RH WIND       PRES   REMARKS
WINSLOW        NOT AVBL
SAINT JOHNS    CLOUDY    57  41  55 W21G28    30.11R
6HR MIN TEMP:  57; 6HR MAX TEMP:  67;

WINDOW ROCK    CLOUDY    53  43  68 VRB7      30.14R
6HR MIN TEMP:  50; 6HR MAX TEMP:  64; 6HR PCP:  0.19;

SHOW LOW       CLOUDY    45  41  87 CALM      30.20F
$$

AZZ023-200100-
GREATER PHOENIX AREA

CITY           SKY/WX    TMP DP  RH WIND       PRES   REMARKS
PHOENIX        MOSUNNY   87  38  17 VRB3      29.86S
6HR MIN TEMP:  79; 6HR MAX TEMP:  89;

GLENDALE       MOSUNNY   88  34  14 S3        29.88S
LUKE AFB       NOT AVBL
6HR MIN TEMP:  78; 6HR MAX TEMP:  87;

DEER VALLEY    SUNNY     82  34  17 CALM      29.88S
6HR MIN TEMP:  77; 6HR MAX TEMP:  84;

SCOTTSDALE     SUNNY     82  39  21 S6        29.90S
6HR MIN TEMP:  77; 6HR MAX TEMP:  84;

MESA-FALCON    MOSUNNY   84  37  18 NE5       29.89F
CHANDLER       PTSUNNY   84  39  20 SE12      29.89S
$$

AZZ027-028-200100-
SOUTHWEST MARICOPA COUNTY AND PINAL COUNTY

CITY           SKY/WX    TMP DP  RH WIND       PRES   REMARKS
CASA GRANDE    MOSUNNY   82  19   9 N6        29.90S
6HR MIN TEMP:  73; 6HR MAX TEMP:  84;

$$

AZZ503-504-507>509-200100-
SOUTHEAST ARIZONA

CITY           SKY/WX    TMP DP  RH WIND       PRES   REMARKS
TUCSON         MOSUNNY   81  34  18 N10       29.95S
6HR MIN TEMP:  72; 6HR MAX TEMP:  82;

DAVIS-MONTHAN  PTSUNNY   78  36  21 N7        29.94S
6HR MIN TEMP:  71; 6HR MAX TEMP:  79;

NOGALES        PTSUNNY   70  39  32 S18       30.02R
6HR MIN TEMP:  62; 6HR MAX TEMP:  75; 6HR PCP: TRACE;

SIERRA VISTA   CLOUDY    67  40  37 MISG      30.05R
6HR MIN TEMP:  56; 6HR MAX TEMP:  73; 6HR PCP:  0.04;

DOUGLAS        LGT RAIN  57  46  67 NW18G26   30.06R
SAFFORD        CLOUDY    69  38  32 E12       29.98F
6HR MIN TEMP:  66; 6HR MAX TEMP:  77; 6HR PCP: TRACE;

$$

AZZ020-021-025-026-031-200100-
SOUTHWEST ARIZONA

CITY           SKY/WX    TMP DP  RH WIND       PRES   REMARKS
YUMA           NOT AVBL
$$

CAZ031-033-041-043-047-048-061-200100-
SOUTHERN CALIFORNIA

CITY           SKY/WX    TMP DP  RH WIND       PRES   REMARKS
DOWNTOWN L.A.  SUNNY     67  54  63 W8G16     29.97S
6HR MIN TEMP:  67; 6HR MAX TEMP:  72;

L.A. AIRPORT   PTSUNNY   64  55  72 W15       29.99S
6HR MIN TEMP:  64; 6HR MAX TEMP:  67;

SAN DIEGO      PTSUNNY   67  54  63 NW9       30.01R
6HR MIN TEMP:  67; 6HR MAX TEMP:  70;

BURBANK        SUNNY     73  53  49 S9        29.95S
6HR MIN TEMP:  68; 6HR MAX TEMP:  75;

ONTARIO        MOSUNNY   77  49  37 W14       29.95S
6HR MIN TEMP:  68; 6HR MAX TEMP:  79;

RIVERSIDE      SUNNY     78  52  40 W9G18     29.94S
6HR MIN TEMP:  68; 6HR MAX TEMP:  80;

PALM SPRINGS   PTSUNNY   91  43  18 NW12G22   29.86S
6HR MIN TEMP:  83; 6HR MAX TEMP:  92;

EL CENTRO NAS  SUNNY     88  41  19 E7        29.84S
6HR MIN TEMP:  81; 6HR MAX TEMP:  90;

IMPERIAL       SUNNY     89  42  19 E6        29.83F
6HR MIN TEMP:  81; 6HR MAX TEMP:  90;

BLYTHE         MOSUNNY   88  42  20 W7        29.85S
6HR MIN TEMP:  80; 6HR MAX TEMP:  89;

$$

NVZ020-UTZ003-200100-
SOUTHERN NEVADA-UTAH

CITY           SKY/WX    TMP DP  RH WIND       PRES   REMARKS
LAS VEGAS      NOT AVBL
SALT LAKE CITY PTSUNNY   69  37  30 N7        29.97S
6HR MIN TEMP:  63; 6HR MAX TEMP:  72;

$$

NMZ009-TXZ055-200100-
NEW MEXICO-WEST TEXAS

CITY           SKY/WX    TMP DP  RH WIND       PRES   REMARKS
ALBUQUERQUE    PTSUNNY   60  42  51 SW7       30.08R
6HR MIN TEMP:  55; 6HR MAX TEMP:  61; 6HR PCP: TRACE;

EL PASO        CLOUDY    58  51  78 NE12      30.03S
6HR MIN TEMP:  53; 6HR MAX TEMP:  76; 6HR PCP:  0.45;

$$


........................KEY........................
SKY/WX - SKY CONDITION/WEATHER
TMP    - TEMPERATURE IN FAHRENHEIT
DP     - DEW POINT IN FAHRENHEIT
RH     - RELATIVE HUMIDITY IN PERCENT
WIND   - DIRECTION AND SPEED IN MILES PER HOUR (MPH)
VRB    - VARIABLE WIND DIRECTION
PRES   - MEAN SEA LEVEL PRESSURE IN INCHES OF MERCURY
         F - FALLING PRESSURE   R - RISING PRESSURE
         S - STEADY PRESSURE
VSB    - VISIBILITY IN MILES
HX     - HEAT INDEX IN FAHRENHEIT
WCI    - WIND CHILL INDEX IN FAHRENHEIT
TC     - TEMPERATURE IN CELSIUS WHICH IS ALSO KNOWN AS
         TEMPERATURE IN CENTIGRADE
AFB    - AIR FORCE BASE
         LUKE AFB IS LUKE AIR FORCE BASE
         DAVIS-MONTHAN IS DAVIS-MONTHAN AIR FORCE BASE
NAS    - NAVAL AIR STATION
         EL CENTRO NAS IS EL CENTRO NAVAL AIR STATION
N/A    - NOT AVAILABLE



USA.gov is the U.S. government's official web portal to all federal, state and local government web resources and services.